Погода в Абовяне

Армения     40°16′46″N   44°37′47″E
темп.,
°C
ветер,
м/с
пор.,
м/с
влажн.,
%
обл.,
%
осадки,
мм/ч
давл.,
гПа
погр.,
м
13 мая, чт
чт1301:00+11вюв433758 0.0 101627
04:00+11вюв444341 0.0 101632
07:00+12вюв33485 0.0 101630
10:00+17юз35364 0.0 10161250
13:00+20зюз44283 0.0 10152738
16:00+20зюз222713 0.0 10132482
19:00+17св224736 0.1 101465
22:00+13вюв4452100 0.6 101846
14 мая, пт
пт1401:00+12вюв1152100 0.5 101813
04:00+11в325497 0.6 101717
07:00+12вюв225654 0.0 101818
10:00+16з21476 0.1 1017829
13:00+19зюз334223 1.4 10162001
16:00+19сз123612 2.8 10142303
19:00+15св57608 0.5 1016253
22:00+12в44514 0.5 101738
15 мая, сб
сб1501:00+11в33535 0.3 101724
04:00+10всв33560 0.3 101721
07:00+12в22620 0.0 101730
10:00+16з32520 0.1 10161063
13:00+19з334634 0.4 10141848
16:00+19ссз124061 0.9 10122125
19:00+14всв226473 0.6 101466
22:00+12всв557068 1.9 101555
16 мая, вс
вс1601:00+11всв436431 0.4 101534
04:00+10всв336334 0.4 101524
07:00+12вюв22622 0.0 101424
10:00+16зюз32554 0.0 1013869
13:00+19зюз44424 0.4 10111902
16:00+20ююз33323 0.5 10091992
19:00+16ю115966 0.0 101089
22:00+12вюв225193 0.0 101219
17 мая, пн
пн1701:00+12вюв334789 0.0 101122
04:00+12вюв2252100 0.0 101116
07:00+13вюв22580 0.0 101131
10:00+17зюз354698 0.0 1011934
13:00+19юз4539100 0.0 10101721
16:00+20юз363425 0.0 10092378
19:00+18зсз22490 0.2 1009126
22:00+13вюв554177 0.2 101152